{"data":{"norad_id":58137,"intl_designator":"2023-162V","name":"STARLINK-30782","alt_names":[],"object_type":"PAYLOAD","status":"ACTIVE","operator":null,"country":"US","launch_date":"2023-10-22","launch_site_code":"AFETR","launch_vehicle":null,"mission":null,"orbit_class":"UNKNOWN","rcs_meters":null,"size_class":null,"mass_kg":null,"dimensions":null,"purposes":["comms"],"wikipedia_slug":null,"has_3d_model":false,"image_url":null,"decayed_at":null,"tle_current":{"epoch":"2026-09-20T00:10:48.038880Z","epoch_age_seconds":183013,"freshness":"STALE","line1":"1 58137U 23162V   26263.00750045  .00000323  00000+0  21244-4 0  9992","line2":"2 58137  43.0036 115.2341 0000855 268.1225  91.9529 15.27576852162027","mean_motion":15.27576852,"eccentricity":8.55e-5,"inclination_deg":43.0036,"raan_deg":115.2341,"arg_perigee_deg":268.1225,"mean_anomaly_deg":91.9529,"bstar":2.1244e-5,"rev_number":16202,"period_min":94.266942976693,"perigee_km":482.47189008317,"apogee_km":483.64515451748,"semimajor_km":6861.1955223003,"source":"CELESTRAK","updated_at":"2026-09-21T09:00:33.794513Z"}}}